Regional Weather Roundup
Issued by NWS

Home | Current Version | Previous Version | Text Only | Print | Product List | Glossary On
Versions: 1 2 3 4 5 6 7 8 9 10 11 12 13 14 15 16 17 18 19 20 21 22 23 24 25 26 27 28 29 30 31 32 33 34 35 36 37 38 39 40 41 42 43 44 45 46 47 48 49 50
000
ASUS43 KTOP 300908
RWRKS

WEATHER ROUNDUP FOR KANSAS
NATIONAL WEATHER SERVICE GOODLAND KS
400 AM CDT THU JUL 30 2015

NOTE:  "FAIR" INDICATES FEW OR NO CLOUDS BELOW 12,000 FEET WITH NO
SIGNIFICANT WEATHER AND/OR OBSTRUCTIONS TO VISIBILITY.

KSZ001>006-013>018-027>032-041>047-301000-
NORTHWEST KANSAS

CITY           SKY/WX    TMP DP  RH WIND       PRES   REMARKS
GOODLAND       PTCLDY    62  57  83 S8        30.28F
HAYS           CLOUDY    66  55  68 NE7       30.22F
HILL CITY      CLOUDY    67  62  84 CALM      30.24F
RUSSELL        PTCLDY    66  60  81 N6        30.20S
$$

KSZ061>065-074>080-084>089-301000-
SOUTHWEST KANSAS

CITY           SKY/WX    TMP DP  RH WIND       PRES   REMARKS
DODGE CITY     CLOUDY    69  67  93 SE3       30.22F
ELKHART          N/A     66  60  81 E12         N/A
GARDEN CITY    PTCLDY    68  66  93 E5        30.23F
GREAT BEND     CLOUDY    72  64  78 E5        30.20S
LIBERAL        MOCLDY    70  64  83 E7        30.22S
PRATT          CLOUDY    70  68  94 NE13G20   30.17F THUNDER
$$

KSZ066>073-081>083-090>101-301000-
SOUTHEAST KANSAS

CITY           SKY/WX    TMP DP  RH WIND       PRES   REMARKS
CHANUTE        CLOUDY    75  66  73 NE3       30.16S
COFFEYVILLE    CLOUDY    75  66  73 N6        30.14R
HUTCHINSON     MOCLDY    72  67  84 NW8       30.17S THUNDER
MEDICINE LODGE   N/A     73  69  87 E7        30.13F
PARSONS        CLOUDY    76  66  71 CALM      30.16S
WICHITA INTL   MOCLDY    76  66  71 E9        30.15F
WICHITA JABRA  MOCLDY    72  68  87 E5        30.15F
WICHITA MCCONL PTCLDY    74  66  76 E8        30.15F
WINFIELD       MOCLDY    76  68  76 E8        30.15F
$$

KSZ007>012-019>026-033>040-048>060-102>105-301000-
NORTHEAST KANSAS

CITY           SKY/WX    TMP DP  RH WIND       PRES   REMARKS
CONCORDIA      CLEAR     62  60  93 CALM      30.21S
EMPORIA        CLOUDY    71  68  90 E5        30.18S
LAWRENCE       CLEAR     64  62  93 CALM      30.18S
MANHATTAN      CLEAR     64  63  96 CALM      30.19R
MARYSVILLE     CLEAR     61  61 100 CALM      30.21R FOG
OLATHE IND     CLEAR     69  65  86 E3        30.19S
OLATHE EXE     PTCLDY    69  64  84 CALM      30.18S
SALINA         PTCLDY    73  65  75 E3        30.18F
TOPEKA BILLARD FOG       66  66 100 CALM      30.18S VSB 1/4
TOPEKA FORBES  CLEAR     67  64  90 CALM      30.18F
$$


USA.gov is the U.S. government's official web portal to all federal, state and local government web resources and services.